| time (UTC) | temp F | wind direction | speed MPH | gust MPH | rain 1hr in | rain 24hr in | rain mn in | humidity % | barometer mb |
| 20260509150518 | 60 | 333 | 1.0 | 2.0 | 0.00 | 0.00 | 0.00 | 68 | 1012.5 |
| 20260509150017 | 60 | 91 | 2.0 | 5.0 | 0.00 | 0.00 | 0.00 | 70 | 1012.3 |
| 20260509145512 | 59 | 36 | 0.0 | 3.0 | 0.00 | 0.00 | 0.00 | 72 | 1012.5 |
| 20260509145007 | 59 | 50 | 0.0 | 3.0 | 0.00 | 0.00 | 0.00 | 70 | 1012.8 |
| 20260509144505 | 59 | 135 | 1.0 | 4.0 | 0.00 | 0.00 | 0.00 | 71 | 1012.8 |
| 20260509144002 | 57 | 332 | 0.0 | 4.0 | 0.00 | 0.00 | 0.00 | 72 | 1012.6 |
| 20260509143458 | 57 | 12 | 2.0 | 5.0 | 0.00 | 0.00 | 0.00 | 75 | 1012.6 |
| 20260509142955 | 57 | 65 | 2.0 | 3.0 | 0.00 | 0.00 | 0.00 | 74 | 1012.5 |
| 20260509142452 | 56 | 131 | 2.0 | 4.0 | 0.00 | 0.00 | 0.00 | 74 | 1012.6 |
| 20260509141947 | 56 | 110 | 0.0 | 3.0 | 0.00 | 0.00 | 0.00 | 75 | 1012.6 |
| 20260509141444 | 56 | 98 | 0.0 | 4.0 | 0.00 | 0.00 | 0.00 | 76 | 1012.3 |
| 20260509140941 | 56 | 65 | 0.0 | 2.0 | 0.00 | 0.00 | 0.00 | 76 | 1012.2 |
| 20260509140437 | 55 | 114 | 1.0 | 3.0 | 0.00 | 0.00 | 0.00 | 76 | 1012.1 |
| 20260509135936 | 55 | 60 | 0.0 | 3.0 | 0.00 | 0.00 | 0.00 | 76 | 1011.9 |
| 20260509135433 | 55 | 125 | 0.0 | 5.0 | 0.00 | 0.00 | 0.00 | 77 | 1012.0 |
| 20260509134930 | 55 | 110 | 2.0 | 3.0 | 0.00 | 0.00 | 0.00 | 76 | 1012.0 |
| 20260509134427 | 55 | 98 | 0.0 | 3.0 | 0.00 | 0.00 | 0.00 | 75 | 1012.1 |
| 20260509133925 | 55 | 309 | 0.0 | 6.0 | 0.00 | 0.00 | 0.00 | 75 | 1012.2 |
| 20260509133421 | 55 | 106 | 2.0 | 4.0 | 0.00 | 0.00 | 0.00 | 75 | 1012.2 |
| 20260509132920 | 55 | 142 | 2.0 | 5.0 | 0.00 | 0.00 | 0.00 | 74 | 1012.4 |
| 20260509132417 | 55 | 38 | 0.0 | 7.0 | 0.00 | 0.00 | 0.00 | 71 | 1012.6 |
| 20260509131914 | 55 | 51 | 2.0 | 4.0 | 0.00 | 0.00 | 0.00 | 72 | 1012.5 |
| 20260509131411 | 55 | 126 | 0.0 | 3.0 | 0.00 | 0.00 | 0.00 | 73 | 1012.5 |
| 20260509130908 | 55 | 124 | 3.0 | 4.0 | 0.00 | 0.00 | 0.00 | 74 | 1012.5 |
| 20260509130403 | 55 | 89 | 0.0 | 4.0 | 0.00 | 0.00 | 0.00 | 73 | 1012.4 |
| 20260509125900 | 55 | 124 | 2.0 | 4.0 | 0.00 | 0.00 | 0.00 | 71 | 1012.3 |
| 20260509125357 | 55 | 21 | 0.0 | 3.0 | 0.00 | 0.00 | 0.00 | 69 | 1012.3 |
| 20260509124852 | 55 | 352 | 1.0 | 4.0 | 0.00 | 0.00 | 0.00 | 68 | 1012.3 |
| 20260509124350 | 55 | 51 | 1.0 | 5.0 | 0.00 | 0.00 | 0.00 | 67 | 1012.1 |
| 20260509123848 | 55 | 49 | 0.0 | 3.0 | 0.00 | 0.00 | 0.00 | 64 | 1012.3 |
| 20260509123345 | 56 | 182 | 1.0 | 3.0 | 0.00 | 0.00 | 0.00 | 65 | 1012.2 |
| 20260509122840 | 56 | 325 | 2.0 | 4.0 | 0.00 | 0.00 | 0.00 | 62 | 1012.2 |
| 20260509122337 | 55 | 83 | 2.0 | 3.0 | 0.00 | 0.00 | 0.00 | 64 | 1012.3 |
| 20260509121834 | 55 | 119 | 2.0 | 3.0 | 0.00 | 0.00 | 0.00 | 66 | 1012.5 |
| 20260509121331 | 55 | 75 | 0.0 | 1.0 | 0.00 | 0.00 | 0.00 | 68 | 1012.5 |
| 20260509120830 | 55 | 129 | 0.0 | 1.0 | 0.00 | 0.00 | 0.00 | 67 | 1012.4 |
| 20260509120327 | 55 | 343 | 0.0 | 1.0 | 0.00 | 0.00 | 0.00 | 68 | 1012.4 |
| 20260509115825 | 55 | 135 | 0.0 | 2.0 | 0.00 | 0.00 | 0.00 | 71 | 1012.4 |
| 20260509115322 | 55 | 236 | 1.0 | 2.0 | 0.00 | 0.00 | 0.00 | 72 | 1012.6 |
| 20260509114820 | 55 | 323 | 0.0 | 2.0 | 0.00 | 0.00 | 0.00 | 70 | 1012.3 |
| 20260509114318 | 55 | 218 | 0.0 | 2.0 | 0.00 | 0.00 | 0.00 | 65 | 1012.3 |
| 20260509113817 | 56 | 240 | 0.0 | 2.0 | 0.00 | 0.00 | 0.00 | 65 | 1012.1 |
| 20260509113313 | 56 | 14 | 1.0 | 2.0 | 0.00 | 0.00 | 0.00 | 65 | 1012.4 |
| 20260509112810 | 55 | 256 | 0.0 | 3.0 | 0.00 | 0.00 | 0.00 | 63 | 1012.2 |
| 20260509112308 | 55 | 236 | 2.0 | 2.0 | 0.00 | 0.00 | 0.00 | 63 | 1012.0 |
| 20260509111804 | 55 | 344 | 0.0 | 2.0 | 0.00 | 0.00 | 0.00 | 63 | 1012.0 |
| 20260509111301 | 55 | 257 | 1.0 | 2.0 | 0.00 | 0.00 | 0.00 | 61 | 1012.1 |
| 20260509110759 | 56 | 244 | 2.0 | 3.0 | 0.00 | 0.00 | 0.00 | 60 | 1012.0 |
| 20260509110255 | 56 | 245 | 1.0 | 3.0 | 0.00 | 0.00 | 0.00 | 60 | 1012.2 |
| 20260509105753 | 56 | 241 | 2.0 | 3.0 | 0.00 | 0.00 | 0.00 | 60 | 1012.3 |
| 20260509105251 | 56 | 244 | 1.0 | 3.0 | 0.00 | 0.00 | 0.00 | 59 | 1012.2 |
| 20260509104747 | 56 | 247 | 2.0 | 3.0 | 0.00 | 0.00 | 0.00 | 59 | 1012.4 |
| 20260509104244 | 57 | 252 | 3.0 | 3.0 | 0.00 | 0.00 | 0.00 | 56 | 1012.2 |
| 20260509103743 | 57 | 130 | 0.0 | 2.0 | 0.00 | 0.00 | 0.00 | 56 | 1012.1 |
| 20260509103239 | 57 | 309 | 0.0 | 2.0 | 0.00 | 0.00 | 0.00 | 56 | 1011.8 |
| 20260509102738 | 57 | 288 | 0.0 | 3.0 | 0.00 | 0.00 | 0.00 | 57 | 1011.5 |
| 20260509102234 | 57 | 188 | 1.0 | 3.0 | 0.00 | 0.00 | 0.00 | 56 | 1011.6 |
| 20260509101731 | 56 | 86 | 0.0 | 3.0 | 0.00 | 0.00 | 0.00 | 58 | 1011.6 |
| 20260509101227 | 56 | 115 | 2.0 | 3.0 | 0.00 | 0.00 | 0.00 | 58 | 1011.6 |
| 20260509100724 | 56 | 111 | 0.0 | 3.0 | 0.00 | 0.00 | 0.00 | 57 | 1011.4 |
| 20260509100222 | 56 | 116 | 0.0 | 2.0 | 0.00 | 0.00 | 0.00 | 57 | 1011.5 |
| 20260509095718 | 56 | 240 | 0.0 | 2.0 | 0.00 | 0.00 | 0.00 | 57 | 1011.5 |
| 20260509095216 | 56 | 129 | 0.0 | 3.0 | 0.00 | 0.00 | 0.00 | 58 | 1011.4 |
| 20260509094712 | 55 | 109 | 2.0 | 3.0 | 0.00 | 0.00 | 0.00 | 58 | 1011.7 |
| 20260509094209 | 55 | 92 | 1.0 | 3.0 | 0.00 | 0.00 | 0.00 | 60 | 1011.4 |
| 20260509093708 | 56 | 108 | 3.0 | 4.0 | 0.00 | 0.00 | 0.00 | 58 | 1011.6 |
| 20260509093204 | 56 | 125 | 3.0 | 4.0 | 0.00 | 0.00 | 0.00 | 57 | 1011.7 |
| 20260509092702 | 57 | 121 | 2.0 | 6.0 | 0.00 | 0.00 | 0.00 | 55 | 1011.4 |
| 20260509092200 | 57 | 124 | 2.0 | 4.0 | 0.00 | 0.00 | 0.00 | 56 | 1011.6 |
| 20260509091658 | 57 | 130 | 2.0 | 4.0 | 0.00 | 0.00 | 0.00 | 55 | 1011.4 |
| 20260509091154 | 57 | 108 | 2.0 | 4.0 | 0.00 | 0.00 | 0.00 | 55 | 1011.3 |
| 20260509090652 | 57 | 108 | 2.0 | 5.0 | 0.00 | 0.00 | 0.00 | 56 | 1011.2 |
| 20260509090149 | 57 | 132 | 3.0 | 4.0 | 0.00 | 0.00 | 0.00 | 56 | 1011.5 |
| 20260509085647 | 56 | 74 | 2.0 | 3.0 | 0.00 | 0.00 | 0.00 | 58 | 1011.7 |
| 20260509085142 | 56 | 89 | 0.0 | 2.0 | 0.00 | 0.00 | 0.00 | 57 | 1011.5 |
| 20260509084640 | 56 | 99 | 0.0 | 3.0 | 0.00 | 0.00 | 0.00 | 57 | 1011.6 |
| 20260509084137 | 56 | 50 | 0.0 | 2.0 | 0.00 | 0.00 | 0.00 | 57 | 1011.5 |
| 20260509083634 | 56 | 95 | 0.0 | 2.0 | 0.00 | 0.00 | 0.00 | 56 | 1011.5 |
| 20260509083130 | 56 | 89 | 0.0 | 2.0 | 0.00 | 0.00 | 0.00 | 56 | 1011.7 |
| 20260509082628 | 57 | 92 | 1.0 | 4.0 | 0.00 | 0.00 | 0.00 | 56 | 1011.5 |
| 20260509082125 | 57 | 89 | 0.0 | 2.0 | 0.00 | 0.00 | 0.00 | 58 | 1011.5 |
| 20260509081622 | 57 | 40 | 1.0 | 4.0 | 0.00 | 0.00 | 0.00 | 57 | 1011.4 |
| 20260509081119 | 57 | 48 | 0.0 | 2.0 | 0.00 | 0.00 | 0.00 | 57 | 1011.6 |
| 20260509080617 | 57 | 22 | 0.0 | 2.0 | 0.00 | 0.00 | 0.00 | 56 | 1011.5 |
| 20260509080114 | 57 | 218 | 0.0 | 2.0 | 0.00 | 0.00 | 0.00 | 56 | 1011.4 |
| 20260509075612 | 58 | 295 | 0.0 | 3.0 | 0.00 | 0.00 | 0.00 | 55 | 1011.6 |
| 20260509075110 | 58 | 263 | 1.0 | 3.0 | 0.00 | 0.00 | 0.00 | 53 | 1011.5 |
| 20260509074606 | 58 | 344 | 3.0 | 4.0 | 0.00 | 0.00 | 0.00 | 52 | 1011.6 |
| 20260509074103 | 58 | 211 | 2.0 | 3.0 | 0.00 | 0.00 | 0.00 | 51 | 1011.4 |
| 20260509073600 | 58 | 217 | 0.0 | 2.0 | 0.00 | 0.00 | 0.00 | 52 | 1011.5 |
| 20260509073056 | 58 | 198 | 0.0 | 4.0 | 0.00 | 0.00 | 0.00 | 51 | 1011.6 |
| 20260509072553 | 58 | 203 | 2.0 | 3.0 | 0.00 | 0.00 | 0.00 | 51 | 1011.6 |
| 20260509072049 | 58 | 211 | 2.0 | 5.0 | 0.00 | 0.00 | 0.00 | 52 | 1011.6 |
| 20260509071546 | 59 | 212 | 0.0 | 4.0 | 0.00 | 0.00 | 0.00 | 50 | 1011.5 |
| 20260509071044 | 58 | 231 | 2.0 | 2.0 | 0.00 | 0.00 | 0.00 | 54 | 1011.7 |
| 20260509070541 | 58 | 249 | 2.0 | 3.0 | 0.00 | 0.00 | 0.00 | 53 | 1011.6 |
| 20260509070037 | 58 | 59 | 0.0 | 3.0 | 0.00 | 0.00 | 0.00 | 53 | 1011.5 |
| 20260509065532 | 58 | 192 | 2.0 | 3.0 | 0.00 | 0.00 | 0.00 | 53 | 1011.6 |
| 20260509065029 | 58 | 211 | 1.0 | 4.0 | 0.00 | 0.00 | 0.00 | 53 | 1011.8 |
| 20260509064527 | 58 | 64 | 2.0 | 3.0 | 0.00 | 0.00 | 0.00 | 54 | 1011.7 |
| 20260509064025 | 58 | 110 | 0.0 | 3.0 | 0.00 | 0.00 | 0.00 | 53 | 1011.9 |
| 20260509063519 | 57 | 187 | 0.0 | 3.0 | 0.00 | 0.00 | 0.00 | 54 | 1011.8 |
| 20260509063017 | 58 | 89 | 0.0 | 2.0 | 0.00 | 0.00 | 0.00 | 54 | 1011.8 |
| 20260509062514 | 58 | 226 | 0.0 | 3.0 | 0.00 | 0.00 | 0.00 | 54 | 1011.7 |
| 20260509062012 | 58 | 133 | 0.0 | 3.0 | 0.00 | 0.00 | 0.00 | 53 | 1012.0 |
| 20260509061509 | 58 | 269 | 0.0 | 5.0 | 0.00 | 0.00 | 0.00 | 53 | 1012.1 |
| 20260509061006 | 59 | 23 | 3.0 | 4.0 | 0.00 | 0.00 | 0.00 | 51 | 1012.1 |
| 20260509060503 | 59 | 28 | 0.0 | 3.0 | 0.00 | 0.00 | 0.00 | 51 | 1012.1 |
| 20260509055959 | 60 | 227 | 0.0 | 3.0 | 0.00 | 0.00 | 0.00 | 49 | 1012.2 |
| 20260509055454 | 60 | 194 | 1.0 | 3.0 | 0.00 | 0.00 | 0.00 | 49 | 1012.1 |
| 20260509054951 | 60 | 142 | 0.0 | 4.0 | 0.00 | 0.00 | 0.00 | 50 | 1011.8 |
| 20260509054447 | 60 | 107 | 0.0 | 3.0 | 0.00 | 0.00 | 0.00 | 49 | 1012.1 |
| 20260509053946 | 60 | 116 | 2.0 | 4.0 | 0.00 | 0.00 | 0.00 | 50 | 1012.2 |
| 20260509053444 | 60 | 107 | 2.0 | 4.0 | 0.00 | 0.00 | 0.00 | 51 | 1012.1 |
| 20260509052941 | 60 | 122 | 0.0 | 10.0 | 0.00 | 0.00 | 0.00 | 48 | 1012.0 |
| 20260509052438 | 60 | 116 | 1.0 | 3.0 | 0.00 | 0.00 | 0.00 | 49 | 1012.2 |
| 20260509051936 | 60 | 110 | 0.0 | 3.0 | 0.00 | 0.00 | 0.00 | 49 | 1012.1 |
| 20260509051434 | 60 | 114 | 1.0 | 3.0 | 0.00 | 0.00 | 0.00 | 50 | 1012.2 |
| 20260509050930 | 59 | 118 | 2.0 | 4.0 | 0.00 | 0.00 | 0.00 | 50 | 1012.1 |
| 20260509050427 | 59 | 93 | 2.0 | 7.0 | 0.00 | 0.00 | 0.00 | 51 | 1012.2 |
| 20260509045924 | 59 | 138 | 4.0 | 7.0 | 0.00 | 0.00 | 0.00 | 51 | 1012.1 |
| 20260509045421 | 59 | 93 | 3.0 | 6.0 | 0.00 | 0.00 | 0.00 | 52 | 1012.1 |
| 20260509044918 | 60 | 89 | 4.0 | 5.0 | 0.00 | 0.00 | 0.00 | 50 | 1012.2 |
| 20260509044416 | 59 | 137 | 4.0 | 4.0 | 0.00 | 0.00 | 0.00 | 50 | 1012.4 |
| 20260509043912 | 59 | 110 | 2.0 | 6.0 | 0.00 | 0.00 | 0.00 | 49 | 1012.4 |
| 20260509043408 | 59 | 107 | 3.0 | 12.0 | 0.00 | 0.00 | 0.00 | 50 | 1012.4 |
| 20260509042904 | 59 | 105 | 2.0 | 4.0 | 0.00 | 0.00 | 0.00 | 50 | 1012.5 |
| 20260509042401 | 59 | 83 | 2.0 | 5.0 | 0.00 | 0.00 | 0.00 | 49 | 1012.6 |
| 20260509041857 | 59 | 114 | 2.0 | 5.0 | 0.00 | 0.00 | 0.00 | 50 | 1012.5 |
| 20260509041354 | 59 | 118 | 2.0 | 5.0 | 0.00 | 0.00 | 0.00 | 51 | 1012.4 |
| 20260509040852 | 59 | 97 | 3.0 | 5.0 | 0.00 | 0.00 | 0.00 | 50 | 1012.6 |
| 20260509040350 | 60 | 97 | 2.0 | 8.0 | 0.00 | 0.00 | 0.00 | 48 | 1012.6 |
| 20260509035847 | 60 | 122 | 4.0 | 5.0 | 0.00 | 0.00 | 0.00 | 48 | 1012.5 |
| 20260509035344 | 59 | 76 | 2.0 | 6.0 | 0.00 | 0.00 | 0.00 | 48 | 1012.7 |
| 20260509034840 | 59 | 105 | 3.0 | 4.0 | 0.00 | 0.00 | 0.00 | 50 | 1012.5 |
| 20260509034338 | 59 | 89 | 4.0 | 7.0 | 0.00 | 0.00 | 0.00 | 51 | 1012.7 |
| 20260509033834 | 59 | 67 | 4.0 | 11.0 | 0.00 | 0.00 | 0.00 | 50 | 1012.4 |
| 20260509033332 | 59 | 78 | 4.0 | 9.0 | 0.00 | 0.00 | 0.00 | 50 | 1012.6 |
| 20260509032828 | 59 | 129 | 4.0 | 5.0 | 0.00 | 0.00 | 0.00 | 50 | 1012.6 |
| 20260509032325 | 59 | 93 | 3.0 | 6.0 | 0.00 | 0.00 | 0.00 | 50 | 1012.7 |
| 20260509031823 | 59 | 92 | 3.0 | 5.0 | 0.00 | 0.00 | 0.00 | 49 | 1012.8 |
| 20260509031320 | 60 | 116 | 3.0 | 5.0 | 0.00 | 0.00 | 0.00 | 48 | 1012.7 |
| 20260509030818 | 60 | 96 | 5.0 | 5.0 | 0.00 | 0.00 | 0.00 | 48 | 1012.7 |
| 20260509030316 | 60 | 115 | 2.0 | 5.0 | 0.00 | 0.00 | 0.00 | 48 | 1012.7 |
| 20260509025812 | 60 | 119 | 3.0 | 10.0 | 0.00 | 0.00 | 0.00 | 48 | 1012.7 |
| 20260509025308 | 60 | 97 | 4.0 | 8.0 | 0.00 | 0.00 | 0.00 | 47 | 1012.7 |
| 20260509024803 | 60 | 76 | 4.0 | 5.0 | 0.00 | 0.00 | 0.00 | 47 | 1012.9 |
| 20260509024300 | 60 | 128 | 3.0 | 5.0 | 0.00 | 0.00 | 0.00 | 47 | 1012.8 |
| 20260509023757 | 60 | 87 | 2.0 | 5.0 | 0.00 | 0.00 | 0.00 | 47 | 1012.8 |
| 20260509023254 | 60 | 111 | 3.0 | 6.0 | 0.00 | 0.00 | 0.00 | 47 | 1013.0 |
| 20260509022750 | 59 | 102 | 4.0 | 5.0 | 0.00 | 0.00 | 0.00 | 47 | 1013.2 |
| 20260509022248 | 59 | 119 | 3.0 | 5.0 | 0.00 | 0.00 | 0.00 | 47 | 1013.1 |
| 20260509021745 | 60 | 139 | 6.0 | 6.0 | 0.00 | 0.00 | 0.00 | 47 | 1012.9 |
| 20260509021242 | 60 | 110 | 2.0 | 5.0 | 0.00 | 0.00 | 0.00 | 47 | 1013.1 |
| 20260509020740 | 60 | 136 | 3.0 | 5.0 | 0.00 | 0.00 | 0.00 | 47 | 1013.0 |
| 20260509020237 | 60 | 139 | 5.0 | 5.0 | 0.00 | 0.00 | 0.00 | 47 | 1013.3 |
| 20260509015735 | 60 | 140 | 3.0 | 5.0 | 0.00 | 0.00 | 0.00 | 47 | 1013.0 |
| 20260509015233 | 60 | 134 | 4.0 | 5.0 | 0.00 | 0.00 | 0.00 | 46 | 1013.0 |
| 20260509014729 | 60 | 123 | 2.0 | 5.0 | 0.00 | 0.00 | 0.00 | 47 | 1012.8 |
| 20260509014226 | 60 | 114 | 2.0 | 4.0 | 0.00 | 0.00 | 0.00 | 47 | 1013.2 |
| 20260509013723 | 60 | 130 | 2.0 | 4.0 | 0.00 | 0.00 | 0.00 | 47 | 1013.0 |
| 20260509013218 | 60 | 119 | 3.0 | 4.0 | 0.00 | 0.00 | 0.00 | 46 | 1012.9 |
| 20260509012715 | 60 | 128 | 3.0 | 5.0 | 0.00 | 0.00 | 0.00 | 45 | 1012.9 |
| 20260509012212 | 60 | 141 | 3.0 | 4.0 | 0.00 | 0.00 | 0.00 | 46 | 1012.8 |
| 20260509011709 | 61 | 140 | 3.0 | 5.0 | 0.00 | 0.00 | 0.00 | 45 | 1012.9 |
| 20260509011207 | 61 | 146 | 3.0 | 5.0 | 0.00 | 0.00 | 0.00 | 44 | 1012.9 |
| 20260509010705 | 61 | 131 | 3.0 | 4.0 | 0.00 | 0.00 | 0.00 | 44 | 1013.0 |
| 20260509010201 | 61 | 127 | 3.0 | 4.0 | 0.00 | 0.00 | 0.00 | 45 | 1012.9 |
| 20260509005658 | 61 | 129 | 2.0 | 4.0 | 0.00 | 0.00 | 0.00 | 46 | 1012.9 |
| 20260509005155 | 61 | 95 | 2.0 | 4.0 | 0.00 | 0.00 | 0.00 | 46 | 1013.0 |
| 20260509004650 | 61 | 134 | 3.0 | 5.0 | 0.00 | 0.00 | 0.00 | 47 | 1013.1 |
| 20260509004148 | 61 | 126 | 3.0 | 4.0 | 0.00 | 0.00 | 0.00 | 46 | 1012.8 |
| 20260509003646 | 61 | 130 | 3.0 | 5.0 | 0.00 | 0.00 | 0.00 | 47 | 1012.8 |
| 20260509003143 | 60 | 138 | 3.0 | 5.0 | 0.00 | 0.00 | 0.00 | 48 | 1012.9 |
| 20260509002640 | 60 | 99 | 2.0 | 5.0 | 0.00 | 0.00 | 0.00 | 48 | 1012.9 |
| 20260509002138 | 60 | 92 | 2.0 | 4.0 | 0.00 | 0.00 | 0.00 | 49 | 1012.7 |
| 20260509001635 | 60 | 108 | 2.0 | 3.0 | 0.00 | 0.00 | 0.00 | 48 | 1012.6 |
| 20260509001130 | 61 | 89 | 2.0 | 3.0 | 0.00 | 0.00 | 0.00 | 47 | 1012.7 |
| 20260509000629 | 61 | 121 | 2.0 | 3.0 | 0.00 | 0.00 | 0.00 | 47 | 1012.7 |
| 20260509000125 | 61 | 112 | 2.0 | 3.0 | 0.00 | 0.00 | 0.00 | 47 | 1012.6 |
| 20260508235623 | 62 | 119 | 2.0 | 3.0 | 0.00 | 0.00 | 0.00 | 46 | 1012.7 |
| 20260508235119 | 62 | 127 | 2.0 | 3.0 | 0.00 | 0.00 | 0.00 | 45 | 1012.6 |
| 20260508234617 | 61 | 86 | 2.0 | 2.0 | 0.00 | 0.00 | 0.00 | 47 | 1012.4 |
| 20260508234113 | 61 | 108 | 1.0 | 3.0 | 0.00 | 0.00 | 0.00 | 48 | 1012.4 |
| 20260508233613 | 62 | 88 | 2.0 | 4.0 | 0.00 | 0.00 | 0.00 | 47 | 1012.4 |
| 20260508233110 | 62 | 120 | 3.0 | 3.0 | 0.00 | 0.00 | 0.00 | 46 | 1012.4 |
| 20260508232607 | 62 | 116 | 2.0 | 2.0 | 0.00 | 0.00 | 0.00 | 45 | 1012.4 |
| 20260508232103 | 62 | 29 | 2.0 | 3.0 | 0.00 | 0.00 | 0.00 | 45 | 1012.2 |
| 20260508231601 | 62 | 141 | 0.0 | 3.0 | 0.00 | 0.00 | 0.00 | 44 | 1012.5 |
| 20260508231058 | 62 | 76 | 0.0 | 1.0 | 0.00 | 0.00 | 0.00 | 45 | 1012.4 |
| 20260508230554 | 63 | 113 | 0.0 | 2.0 | 0.00 | 0.00 | 0.00 | 46 | 1012.3 |
| 20260508230051 | 63 | 89 | 0.0 | 1.0 | 0.00 | 0.00 | 0.00 | 48 | 1012.3 |
| 20260508225548 | 63 | 227 | 0.0 | 3.0 | 0.00 | 0.00 | 0.00 | 45 | 1012.3 |
| 20260508225045 | 63 | 266 | 2.0 | 3.0 | 0.00 | 0.00 | 0.00 | 43 | 1012.5 |
| 20260508224543 | 63 | 229 | 2.0 | 3.0 | 0.00 | 0.00 | 0.00 | 44 | 1012.4 |
| 20260508224040 | 63 | 142 | 0.0 | 3.0 | 0.00 | 0.00 | 0.00 | 45 | 1012.4 |
| 20260508223538 | 63 | 251 | 2.0 | 3.0 | 0.00 | 0.00 | 0.00 | 44 | 1012.2 |
| 20260508223035 | 63 | 236 | 2.0 | 3.0 | 0.00 | 0.00 | 0.00 | 44 | 1012.3 |
| 20260508222532 | 63 | 299 | 0.0 | 3.0 | 0.00 | 0.00 | 0.00 | 44 | 1012.3 |
| 20260508222029 | 64 | 222 | 2.0 | 4.0 | 0.00 | 0.00 | 0.00 | 41 | 1012.2 |
| 20260508221525 | 65 | 253 | 2.0 | 4.0 | 0.00 | 0.00 | 0.00 | 40 | 1012.4 |
| 20260508221021 | 65 | 250 | 2.0 | 4.0 | 0.00 | 0.00 | 0.00 | 40 | 1012.2 |
| 20260508220518 | 64 | 239 | 3.0 | 5.0 | 0.00 | 0.00 | 0.00 | 41 | 1012.2 |
| 20260508220014 | 63 | 251 | 2.0 | 5.0 | 0.00 | 0.00 | 0.00 | 43 | 1012.4 |
| 20260508215511 | 63 | 264 | 2.0 | 5.0 | 0.00 | 0.00 | 0.00 | 41 | 1012.5 |
| 20260508215008 | 63 | 266 | 3.0 | 4.0 | 0.00 | 0.00 | 0.00 | 41 | 1012.2 |
| 20260508214505 | 63 | 236 | 2.0 | 5.0 | 0.00 | 0.00 | 0.00 | 42 | 1012.2 |
| 20260508214001 | 64 | 236 | 1.0 | 5.0 | 0.00 | 0.00 | 0.00 | 42 | 1012.2 |
| 20260508213459 | 64 | 240 | 4.0 | 5.0 | 0.00 | 0.00 | 0.00 | 42 | 1012.5 |
| 20260508212954 | 64 | 257 | 4.0 | 6.0 | 0.00 | 0.00 | 0.00 | 40 | 1012.5 |
| 20260508212451 | 64 | 241 | 4.0 | 8.0 | 0.00 | 0.00 | 0.00 | 40 | 1012.3 |
| 20260508211947 | 63 | 248 | 4.0 | 7.0 | 0.00 | 0.00 | 0.00 | 39 | 1012.5 |
| 20260508211443 | 64 | 278 | 4.0 | 10.0 | 0.00 | 0.00 | 0.00 | 38 | 1012.4 |
| 20260508210940 | 64 | 240 | 6.0 | 9.0 | 0.00 | 0.00 | 0.00 | 40 | 1012.4 |
| 20260508210436 | 64 | 249 | 5.0 | 9.0 | 0.00 | 0.00 | 0.00 | 39 | 1012.4 |
| 20260508205933 | 64 | 233 | 6.0 | 8.0 | 0.00 | 0.00 | 0.00 | 39 | 1012.4 |
| 20260508205430 | 64 | 241 | 5.0 | 8.0 | 0.00 | 0.00 | 0.00 | 39 | 1012.4 |
| 20260508204926 | 64 | 261 | 7.0 | 9.0 | 0.00 | 0.00 | 0.00 | 39 | 1012.3 |
| 20260508204424 | 64 | 251 | 7.0 | 8.0 | 0.00 | 0.00 | 0.00 | 40 | 1012.2 |
| 20260508203919 | 64 | 242 | 5.0 | 9.0 | 0.00 | 0.00 | 0.00 | 38 | 1012.2 |
| 20260508203416 | 65 | 234 | 4.0 | 10.0 | 0.00 | 0.00 | 0.00 | 38 | 1012.6 |
| 20260508202912 | 65 | 238 | 8.0 | 10.0 | 0.00 | 0.00 | 0.00 | 35 | 1012.4 |
| 20260508202409 | 65 | 258 | 6.0 | 8.0 | 0.00 | 0.00 | 0.00 | 35 | 1012.5 |
| 20260508201906 | 65 | 242 | 6.0 | 11.0 | 0.00 | 0.00 | 0.00 | 37 | 1012.5 |
| 20260508201403 | 66 | 282 | 6.0 | 11.0 | 0.00 | 0.00 | 0.00 | 36 | 1012.6 |
| 20260508200859 | 66 | 278 | 4.0 | 6.0 | 0.00 | 0.00 | 0.00 | 38 | 1012.6 |
| 20260508200356 | 65 | 253 | 4.0 | 7.0 | 0.00 | 0.00 | 0.00 | 34 | 1012.5 |
| 20260508195851 | 66 | 256 | 7.0 | 13.0 | 0.00 | 0.00 | 0.00 | 34 | 1012.5 |
| 20260508195348 | 66 | 205 | 2.0 | 6.0 | 0.00 | 0.00 | 0.00 | 34 | 1012.5 |
| 20260508194845 | 65 | 222 | 3.0 | 6.0 | 0.00 | 0.00 | 0.00 | 36 | 1012.6 |
| 20260508194342 | 65 | 207 | 3.0 | 7.0 | 0.00 | 0.00 | 0.00 | 37 | 1012.7 |
| 20260508193839 | 65 | 234 | 5.0 | 7.0 | 0.00 | 0.00 | 0.00 | 36 | 1012.8 |
| 20260508193336 | 66 | 252 | 6.0 | 10.0 | 0.00 | 0.00 | 0.00 | 35 | 1012.7 |
| 20260508192832 | 65 | 268 | 8.0 | 10.0 | 0.00 | 0.00 | 0.00 | 35 | 1012.9 |
| 20260508192329 | 65 | 252 | 6.0 | 9.0 | 0.00 | 0.00 | 0.00 | 33 | 1013.0 |
| 20260508191826 | 65 | 242 | 7.0 | 11.0 | 0.00 | 0.00 | 0.00 | 34 | 1013.1 |
| 20260508191323 | 67 | 266 | 5.0 | 8.0 | 0.00 | 0.00 | 0.00 | 33 | 1012.8 |
| 20260508190821 | 67 | 261 | 5.0 | 8.0 | 0.00 | 0.00 | 0.00 | 34 | 1013.1 |
| 20260508190317 | 68 | 254 | 9.0 | 14.0 | 0.00 | 0.00 | 0.00 | 32 | 1013.2 |
| 20260508185813 | 65 | 279 | 5.0 | 11.0 | 0.00 | 0.00 | 0.00 | 36 | 1013.2 |
| 20260508185311 | 66 | 238 | 6.0 | 8.0 | 0.00 | 0.00 | 0.00 | 36 | 1013.4 |
| 20260508184808 | 66 | 232 | 4.0 | 10.0 | 0.00 | 0.00 | 0.00 | 34 | 1013.4 |
| 20260508184305 | 64 | 260 | 6.0 | 13.0 | 0.00 | 0.00 | 0.00 | 36 | 1013.4 |
| 20260508183803 | 64 | 234 | 5.0 | 12.0 | 0.00 | 0.00 | 0.00 | 38 | 1013.5 |
| 20260508183258 | 65 | 259 | 5.0 | 9.0 | 0.00 | 0.00 | 0.00 | 35 | 1013.4 |
| 20260508182754 | 64 | 244 | 5.0 | 9.0 | 0.00 | 0.00 | 0.00 | 37 | 1013.4 |
| 20260508182251 | 64 | 219 | 2.0 | 5.0 | 0.00 | 0.00 | 0.00 | 38 | 1013.3 |
| 20260508181747 | 65 | 260 | 5.0 | 5.0 | 0.00 | 0.00 | 0.00 | 37 | 1013.6 |
| 20260508181244 | 67 | 241 | 5.0 | 9.0 | 0.00 | 0.00 | 0.00 | 35 | 1013.6 |
| 20260508180741 | 65 | 268 | 3.0 | 8.0 | 0.00 | 0.00 | 0.00 | 36 | 1013.8 |
| 20260508180238 | 65 | 240 | 5.0 | 8.0 | 0.00 | 0.00 | 0.00 | 37 | 1013.7 |
| 20260508175734 | 65 | 248 | 4.0 | 8.0 | 0.00 | 0.00 | 0.00 | 36 | 1013.9 |
| 20260508175231 | 68 | 243 | 5.0 | 10.0 | 0.00 | 0.00 | 0.00 | 34 | 1013.8 |
| 20260508174729 | 67 | 230 | 5.0 | 9.0 | 0.00 | 0.00 | 0.00 | 36 | 1014.0 |
| 20260508174226 | 66 | 255 | 6.0 | 9.0 | 0.00 | 0.00 | 0.00 | 34 | 1014.1 |
| 20260508173722 | 64 | 253 | 6.0 | 9.0 | 0.00 | 0.00 | 0.00 | 38 | 1014.0 |
| 20260508173218 | 64 | 231 | 5.0 | 7.0 | 0.00 | 0.00 | 0.00 | 38 | 1014.0 |
| 20260508172715 | 66 | 236 | 5.0 | 7.0 | 0.00 | 0.00 | 0.00 | 37 | 1014.0 |
| 20260508172212 | 63 | 234 | 7.0 | 11.0 | 0.00 | 0.00 | 0.00 | 37 | 1014.1 |
| 20260508171709 | 64 | 302 | 5.0 | 8.0 | 0.00 | 0.00 | 0.00 | 38 | 1014.1 |
| 20260508171205 | 66 | 247 | 8.0 | 10.0 | 0.00 | 0.00 | 0.00 | 36 | 1014.6 |
| 20260508170702 | 67 | 279 | 5.0 | 9.0 | 0.00 | 0.00 | 0.00 | 37 | 1014.6 |
| 20260508170200 | 67 | 248 | 3.0 | 8.0 | 0.00 | 0.00 | 0.00 | 36 | 1014.6 |
| 20260508165656 | 65 | 258 | 4.0 | 7.0 | 0.00 | 0.00 | 0.00 | 38 | 1014.6 |
| 20260508165153 | 63 | 233 | 4.0 | 7.0 | 0.00 | 0.00 | 0.00 | 36 | 1014.4 |
| 20260508164650 | 65 | 262 | 5.0 | 10.0 | 0.00 | 0.00 | 0.00 | 37 | 1014.6 |
| 20260508164146 | 64 | 243 | 6.0 | 13.0 | 0.00 | 0.00 | 0.00 | 38 | 1014.8 |
| 20260508163644 | 64 | 240 | 5.0 | 8.0 | 0.00 | 0.00 | 0.00 | 35 | 1014.7 |
| 20260508163142 | 64 | 244 | 6.0 | 9.0 | 0.00 | 0.00 | 0.00 | 38 | 1014.9 |
| 20260508162637 | 64 | 273 | 4.0 | 8.0 | 0.00 | 0.00 | 0.00 | 37 | 1014.9 |
| 20260508162134 | 66 | 250 | 6.0 | 8.0 | 0.00 | 0.00 | 0.00 | 36 | 1014.8 |
| 20260508161631 | 65 | 272 | 5.0 | 7.0 | 0.00 | 0.00 | 0.00 | 37 | 1014.8 |
| 20260508161129 | 63 | 242 | 6.0 | 9.0 | 0.00 | 0.00 | 0.00 | 38 | 1014.8 |
| 20260508160627 | 65 | 235 | 7.0 | 11.0 | 0.00 | 0.00 | 0.00 | 39 | 1014.9 |
| 20260508160125 | 64 | 268 | 3.0 | 7.0 | 0.00 | 0.00 | 0.00 | 36 | 1015.2 |
| 20260508155621 | 63 | 251 | 7.0 | 9.0 | 0.00 | 0.00 | 0.00 | 39 | 1015.1 |
| 20260508155118 | 61 | 254 | 5.0 | 12.0 | 0.00 | 0.00 | 0.00 | 41 | 1014.9 |
| 20260508154615 | 63 | 255 | 4.0 | 7.0 | 0.00 | 0.00 | 0.00 | 38 | 1015.3 |
| 20260508154112 | 63 | 259 | 6.0 | 8.0 | 0.00 | 0.00 | 0.00 | 39 | 1015.1 |
| 20260508153609 | 63 | 246 | 3.0 | 12.0 | 0.00 | 0.00 | 0.00 | 39 | 1015.2 |
| 20260508153106 | 63 | 249 | 8.0 | 11.0 | 0.00 | 0.00 | 0.00 | 40 | 1015.5 |
| 20260508152603 | 62 | 259 | 3.0 | 9.0 | 0.00 | 0.00 | 0.00 | 40 | 1015.1 |
| 20260508152057 | 63 | 237 | 9.0 | 10.0 | 0.00 | 0.00 | 0.00 | 41 | 1015.3 |
| 20260508151554 | 62 | 263 | 5.0 | 8.0 | 0.00 | 0.00 | 0.00 | 41 | 1015.5 |
| 20260508151052 | 62 | 243 | 4.0 | 8.0 | 0.00 | 0.00 | 0.00 | 43 | 1015.3 |